Location: Bothwell
(42.3833°S, 147.0000°E)
Time: 06:24:16
(UTC+10:00)

UWE-3 - Visible Passes

Search period start: 25 September 2022 00:00
Search period end: 05 October 2022 01:00
Orbit: 581 x 678 km, 97.7° (Epoch: 23 September)

Date Brightness Start Highest point End Pass type
(mag) Time Alt. Az. Time Alt. Az. Time Alt. Az.
26 Sep ? 02:06:14 11° S 02:06:14 11° S 02:06:29 10° S visible
27 Sep ? 02:26:34 13° S 02:26:34 13° S 02:27:00 10° S visible
28 Sep ? 02:46:53 13° SSW 02:46:53 13° SSW 02:47:22 10° SSW visible
29 Sep ? 01:29:51 11° SSE 01:29:51 11° SSE 01:30:12 10° SSE visible
29 Sep ? 03:07:13 12° SSW 03:07:13 12° SSW 03:07:33 10° SSW visible
30 Sep ? 01:50:11 15° SSE 01:50:11 15° SSE 01:51:07 10° S visible
30 Sep ? 03:27:32 10° SSW 03:27:32 10° SSW 03:27:33 10° SSW visible
01 Oct ? 02:10:30 18° S 02:10:30 18° S 02:11:46 10° S visible
02 Oct ? 03:30:49 19° S 03:30:49 19° S 03:32:13 10° S visible
03 Oct ? 02:13:46 11° SE 02:13:46 11° SE 02:14:18 10° SSE visible
03 Oct ? 03:51:08 19° SSW 03:51:08 19° SSW 03:52:31 10° SSW visible
04 Oct ? 02:34:06 16° SE 02:34:06 16° SE 02:35:34 10° SSE visible
04 Oct ? 04:11:27 17° SSW 04:11:27 17° SSW 04:12:38 10° SSW visible
